Location: Chakepay
(13.3931°S, 72.1925°W)
Time: 07:08:08
(UTC+00:00)

ATLAS CENTAUR Rocket - Pass Details

Date: 15 November 2019
Orbit: 641 x 36606 km, 28.2° (Epoch: 06 December)

Event Time Altitude Azimuth Distance (km) Brightness Sun altitude
Rises 01:33:54 0° 252° (WSW) 11,868 9.0 -35.6°
Reaches altitude 10° 01:47:52 10° 244° (WSW) 6,720 7.5 -38.3°
Enters shadow 02:00:12 33° 182° (S) 1,861 4.1 -40.7°
